TimeCDT,TemperatureF,Dew PointF,Humidity,Sea Level PressureIn,VisibilityMPH,Wind Direction,Wind SpeedMPH,Gust SpeedMPH,PrecipitationIn,Events,Conditions,WindDirDegrees,DateUTC
12:15 AM,25.2,17.2,72,29.82,10.0,NW,10.4,17.3,N/A,,Overcast,320,2014-03-15 05:15:00
12:35 AM,24.8,15.8,69,29.83,10.0,NW,9.2,19.6,N/A,,Overcast,320,2014-03-15 05:35:00
12:55 AM,24.6,14.7,66,29.83,10.0,NNW,8.1,17.3,N/A,,Overcast,330,2014-03-15 05:55:00
1:15 AM,23.9,16.3,73,29.84,10.0,NNW,10.4,-,N/A,Snow,Light Snow,330,2014-03-15 06:15:00
1:35 AM,23.5,16.2,73,29.85,10.0,NNW,10.4,-,N/A,Snow,Light Snow,340,2014-03-15 06:35:00
1:55 AM,23.5,15.6,72,29.86,10.0,NNW,10.4,16.1,N/A,,Overcast,340,2014-03-15 06:55:00
2:15 AM,23.0,14.9,71,29.87,10.0,NNW,6.9,-,N/A,,Overcast,330,2014-03-15 07:15:00
2:35 AM,22.8,15.3,73,29.88,10.0,NNW,8.1,-,N/A,Snow,Light Snow,340,2014-03-15 07:35:00
2:55 AM,22.1,15.8,77,29.89,10.0,NNW,8.1,-,N/A,Snow,Light Snow,340,2014-03-15 07:55:00
3:15 AM,21.9,14.9,74,29.89,10.0,NNW,8.1,-,N/A,,Overcast,340,2014-03-15 08:15:00
3:35 AM,21.6,14.0,73,29.89,10.0,North,4.6,-,N/A,,Overcast,350,2014-03-15 08:35:00
3:55 AM,21.2,14.0,74,29.90,10.0,NNW,9.2,-,N/A,,Overcast,340,2014-03-15 08:55:00
4:15 AM,21.0,14.9,77,29.90,10.0,NNW,8.1,-,N/A,Snow,Light Snow,330,2014-03-15 09:15:00
4:35 AM,20.8,14.9,78,29.91,7.0,North,3.5,-,N/A,Snow,Light Snow,350,2014-03-15 09:35:00
4:55 AM,20.3,10.6,66,29.92,10.0,NNW,9.2,-,N/A,,Overcast,330,2014-03-15 09:55:00
5:15 AM,20.3,10.4,66,29.93,10.0,NNW,10.4,-,N/A,,Overcast,330,2014-03-15 10:15:00
5:35 AM,20.1,10.2,66,29.94,10.0,NNW,6.9,-,N/A,,Overcast,340,2014-03-15 10:35:00
5:55 AM,19.9,9.9,65,29.95,10.0,NNW,8.1,-,N/A,,Overcast,340,2014-03-15 10:55:00
6:15 AM,19.4,9.3,65,29.96,10.0,NNW,6.9,-,N/A,,Overcast,330,2014-03-15 11:15:00
6:35 AM,19.4,10.0,67,29.96,10.0,NNW,5.8,-,N/A,,Overcast,340,2014-03-15 11:35:00
6:55 AM,19.4,10.4,68,29.97,10.0,NNW,6.9,-,N/A,,Overcast,330,2014-03-15 11:55:00
7:15 AM,19.4,11.1,70,29.98,10.0,NNW,5.8,-,N/A,,Overcast,330,2014-03-15 12:15:00
7:35 AM,19.2,10.4,69,29.99,10.0,NNW,3.5,-,N/A,,Overcast,340,2014-03-15 12:35:00
7:55 AM,19.0,10.8,70,30.00,10.0,NNW,3.5,-,N/A,,Overcast,340,2014-03-15 12:55:00
8:15 AM,19.0,10.9,71,30.01,10.0,North,3.5,-,N/A,,Overcast,350,2014-03-15 13:15:00
8:35 AM,19.2,11.7,72,30.02,10.0,North,5.8,-,N/A,Snow,Light Snow,360,2014-03-15 13:35:00
8:55 AM,19.4,11.1,70,30.02,10.0,North,8.1,-,N/A,,Overcast,360,2014-03-15 13:55:00
9:15 AM,19.2,10.9,70,30.03,10.0,North,9.2,-,N/A,Snow,Light Snow,360,2014-03-15 14:15:00
9:35 AM,20.1,9.5,63,30.04,10.0,NNW,10.4,-,N/A,,Overcast,340,2014-03-15 14:35:00
9:55 AM,20.1,9.5,63,30.05,10.0,NW,8.1,-,N/A,,Mostly Cloudy,320,2014-03-15 14:55:00
10:15 AM,20.5,7.9,58,30.06,10.0,North,9.2,-,N/A,,Scattered Clouds,360,2014-03-15 15:15:00
10:35 AM,19.9,7.9,60,30.08,10.0,North,5.8,-,N/A,,Scattered Clouds,360,2014-03-15 15:35:00
10:55 AM,21.4,7.3,55,30.08,10.0,NW,6.9,-,N/A,,Mostly Cloudy,310,2014-03-15 15:55:00
11:15 AM,21.7,8.1,56,30.09,10.0,North,4.6,-,N/A,,Mostly Cloudy,360,2014-03-15 16:15:00
11:35 AM,21.9,8.6,57,30.10,10.0,NNW,5.8,-,N/A,,Mostly Cloudy,340,2014-03-15 16:35:00
11:55 AM,22.1,7.9,54,30.11,10.0,NNE,10.4,-,N/A,,Mostly Cloudy,20,2014-03-15 16:55:00
12:15 PM,22.1,8.6,56,30.11,10.0,NW,5.8,-,N/A,,Mostly Cloudy,310,2014-03-15 17:15:00
12:35 PM,23.2,5.9,48,30.12,10.0,NNW,6.9,-,N/A,,Scattered Clouds,330,2014-03-15 17:35:00
1:15 PM,23.9,5.5,46,30.13,10.0,NNW,6.9,16.1,N/A,,Clear,340,2014-03-15 18:15:00
1:35 PM,23.7,5.9,47,30.13,10.0,NNW,5.8,-,N/A,,Clear,340,2014-03-15 18:35:00
1:55 PM,24.1,5.7,46,30.13,10.0,North,9.2,-,N/A,,Clear,350,2014-03-15 18:55:00
2:15 PM,24.3,8.2,51,30.14,10.0,North,10.4,-,N/A,,Scattered Clouds,10,2014-03-15 19:15:00
2:35 PM,24.1,8.1,51,30.15,10.0,North,10.4,16.1,N/A,,Scattered Clouds,10,2014-03-15 19:35:00
2:55 PM,24.6,6.8,47,30.15,10.0,North,9.2,-,N/A,,Scattered Clouds,360,2014-03-15 19:55:00
3:15 PM,24.4,3.7,41,30.16,10.0,North,6.9,-,N/A,,Clear,350,2014-03-15 20:15:00
3:35 PM,23.9,3.0,41,30.16,10.0,North,8.1,-,N/A,,Clear,10,2014-03-15 20:35:00
3:55 PM,23.9,5.4,45,30.17,10.0,North,9.2,18.4,N/A,,Clear,350,2014-03-15 20:55:00
4:15 PM,23.2,2.7,41,30.18,10.0,NNW,5.8,-,N/A,,Clear,340,2014-03-15 21:15:00
4:35 PM,22.8,3.2,43,30.19,10.0,North,9.2,-,N/A,,Clear,360,2014-03-15 21:35:00
4:55 PM,22.1,3.9,46,30.20,10.0,North,10.4,-,N/A,,Clear,360,2014-03-15 21:55:00
5:15 PM,21.7,3.6,46,30.21,10.0,NNE,15.0,18.4,N/A,,Clear,20,2014-03-15 22:15:00
5:35 PM,21.0,3.6,47,30.23,10.0,North,10.4,-,N/A,,Clear,10,2014-03-15 22:35:00
5:55 PM,19.8,3.7,50,30.24,10.0,NNE,13.8,-,N/A,,Clear,20,2014-03-15 22:55:00
6:15 PM,19.0,1.9,47,30.26,10.0,North,11.5,19.6,N/A,,Clear,360,2014-03-15 23:15:00
6:35 PM,16.9,1.9,52,30.28,10.0,North,15.0,20.7,N/A,,Clear,360,2014-03-15 23:35:00
6:55 PM,15.6,0.5,51,30.28,10.0,North,13.8,-,N/A,,Clear,360,2014-03-15 23:55:00
7:15 PM,14.5,1.2,56,30.29,10.0,NNE,13.8,17.3,N/A,,Clear,20,2014-03-16 00:15:00
7:35 PM,13.8,-0.2,54,30.31,10.0,North,10.4,18.4,N/A,,Clear,360,2014-03-16 00:35:00
7:55 PM,12.6,0.3,58,30.32,10.0,NNE,12.7,-,N/A,,Clear,30,2014-03-16 00:55:00
8:15 PM,11.7,-0.9,57,30.32,10.0,North,11.5,16.1,N/A,,Clear,10,2014-03-16 01:15:00
8:35 PM,10.6,-1.3,59,30.33,10.0,NNE,11.5,-,N/A,,Clear,30,2014-03-16 01:35:00
8:55 PM,10.4,-3.1,55,30.35,10.0,NNE,9.2,-,N/A,,Clear,20,2014-03-16 01:55:00
9:15 PM,8.6,-3.1,59,30.35,10.0,NNE,6.9,-,N/A,,Clear,30,2014-03-16 02:15:00
9:35 PM,7.0,-3.5,62,30.35,10.0,NNE,6.9,-,N/A,,Clear,20,2014-03-16 02:35:00
9:55 PM,7.7,-3.3,61,30.37,10.0,NE,4.6,-,N/A,,Clear,40,2014-03-16 02:55:00
10:15 PM,6.3,-4.0,63,30.37,10.0,NNE,5.8,-,N/A,,Clear,30,2014-03-16 03:15:00
10:35 PM,5.7,-4.4,63,30.38,10.0,NNE,4.6,-,N/A,,Clear,30,2014-03-16 03:35:00
10:55 PM,5.4,-4.5,64,30.38,10.0,NE,3.5,-,N/A,,Clear,40,2014-03-16 03:55:00
11:15 PM,5.2,-4.7,64,30.38,10.0,NE,3.5,-,N/A,,Clear,40,2014-03-16 04:15:00
11:35 PM,4.1,-5.3,65,30.39,10.0,NNE,4.6,-,N/A,,Clear,30,2014-03-16 04:35:00
11:55 PM,3.4,-5.3,67,30.39,10.0,NE,4.6,-,N/A,,Clear,40,2014-03-16 04:55:00